Location: Gebenbach
(49.5378°N, 11.8735°E)
Time: 03:05:20
(UTC+00:00)

NOAA 12 - Pass Details

Date: 29 October 2020
Orbit: 796 x 815 km, 98.5° (Epoch: 24 November)

Event Time Altitude Azimuth Distance (km) Brightness Sun altitude
Rises 16:40:41 0° 168° (SSE) 3,312 7.3 -8.0°
Reaches altitude 10° 16:43:01 10° 170° (S) 2,388 6.6 -8.3°
Maximum altitude 16:48:18 75° 256° (WSW) 845 4.4 -9.2°
Drops below altitude 10° 16:53:40 10° 343° (NNW) 2,415 6.7 -10.0°
Sets 16:56:02 0° 345° (NNW) 3,353 7.4 -10.4°
